Zurück zum Katalog

CZ-2C R/B

AktivPO
NORAD 28222·ROCKET BODY·🇨🇳 China

Gestartet Apr 18, 2004 von Xichang Satellite Launch Center

Loading…

Nächste Überflüge (nächste 24 Stunden)

TLE

AktuellSource: Space-Track

Epoche: Sep 14, 2026, 20:06 UTC

1 28222U 04012C   26257.83797110  .03662761  27018-5  52282-3 0  9997
2 28222  97.6959 346.0139 0013013 265.4966  94.4843 16.34607721234171

Verfolge CZ-2C R/B in Echtzeit mit AllMySat

Download on the App Store